Location: Calgary
(51.0833°N, 114.0833°W)
Time: 22:11:20
(UTC-07:00)

Tiangong 2 - Visible Passes

Search period start: 16 January 2018 00:00
Search period end: 26 January 2018 00:00
Orbit: 384 x 390 km, 42.8° (Epoch: 16 January)

Date Brightness Start Highest point End Pass type
(mag) Time Alt. Az. Time Alt. Az. Time Alt. Az.
19 Jan 4.0 06:54:41 10° SSW 06:56:14 13° SSE 06:57:46 10° SE visible
20 Jan 3.6 07:31:33 10° SW 07:33:49 18° S 07:36:05 10° SE visible
21 Jan 3.6 06:33:42 12° SSW 06:35:19 16° SSE 06:37:22 10° SE visible
22 Jan 4.1 05:37:49 12° SE 05:37:49 12° SE 05:38:25 10° SE visible
22 Jan 3.4 07:10:37 10° SW 07:12:57 19° S 07:15:15 10° SE visible
23 Jan 3.3 06:14:08 18° S 06:14:25 18° S 06:16:41 10° SE visible
24 Jan 3.3 06:50:24 13° SW 06:52:01 18° S 06:54:16 10° SE visible
25 Jan 3.5 05:54:22 17° SSE 05:54:22 17° SSE 05:55:47 10° SE visible
25 Jan 3.7 07:28:07 10° SW 07:29:34 13° SSW 07:31:00 10° S visible
